Location: Winthrop
(48.4780°N, 120.1850°W)
Time: 19:35:10
(UTC-08:00)

Tiangong - Visible Passes

Search period start: 05 December 2021 00:00
Search period end: 15 December 2021 00:00
Orbit: 380 x 384 km, 41.5° (Epoch: 05 December)

Date Brightness Start Highest point End Pass type
(mag) Time Alt. Az. Time Alt. Az. Time Alt. Az.
09 Dec 3.7 17:44:25 10° SSE 17:44:47 10° SSE 17:45:08 10° SSE visible
10 Dec 3.4 18:18:15 10° SSW 18:19:55 17° S 18:19:55 17° S visible
11 Dec 3.6 17:18:21 10° SSW 17:20:05 14° SSE 17:21:49 10° SE visible
11 Dec 4.1 18:53:41 10° SW 18:54:21 14° SW 18:54:21 14° SW visible
12 Dec 3.0 17:53:20 10° SW 17:55:47 21° S 17:56:35 19° SSE visible
13 Dec 3.4 16:53:07 10° SSW 16:55:19 18° SSE 16:57:32 10° ESE visible
13 Dec 3.2 18:28:59 10° WSW 18:30:59 21° SSW 18:30:59 21° SSW visible
14 Dec 3.1 17:28:28 10° SW 17:31:01 22° S 17:33:13 12° SE visible
14 Dec 4.4 19:05:02 10° WSW 19:05:22 12° SW 19:05:22 12° SW visible
